User: anonymous   Login
Location: Unspecified
(0.0000°N, 0.0000°E)
Time: 06:49:46
(UTC+01:00)
Language:

Cosmos 1125 Rocket - Orbit

View from above orbital plane
View from above orbital plane
View from above satellite
View from above satellite

Ground track
Ground track

The orbit data is extracted from the following two-line orbital elements,

1 11511U 79078B   14352.54455874  .00000260  00000-0  97344-4 0  9693
2 11511 074.0350 190.6608 0016719 296.2100 128.1302 14.36525062847712
Epoch (UTC): 18 December 2014 13:04:09
Eccentricity: 0.0016719
inclination: 74.0350°
perigee height: 758 km
apogee height: 782 km
right ascension of ascending node: 190.6608°
argument of perigee: 296.2100°
revolutions per day: 14.36525062
mean anomaly at epoch: 128.1302°
orbit number at epoch: 84771

The dashed part of the orbit path shows where the satellite is in the earth's shadow,  

DLR